Content
SEND FEEDBACK

Daily
Averages
Monthly
Summary
France

ANNEMASSE, FRANCE


Home > Europe > France
Elevation: 1329 feet     Latitude: 46 12N     Longitude: 006 12E

WEATHER
 
SELECT A DAY
Number of Records: 313,079;   Date Range: 7/1/96 - 10/19/14
 
SHARE

PRINT THIS DATA

[ ← Previous Day ]
WEATHER ALMANAC - MARCH 19, 2013
[ Next Day → ]
[ °C ]   °F
Weather ElementAverageHighLow
Temperature42.8 °F50 °F (1:50 pm)35.6 °F (7:20 am)
Dewpoint30.9 °F34 °F (9:00 am)25 °F (5:00 pm)
Humidity62.1 %93 % (7:20 am)26 % (5:00 pm)
Barometer29.63 in29.73 in (9:00 am)29.50 in (12:20 am)
Wind Speed11 mph20.7 mph (1:20 am)
Weather ElementAverage
Visibility7.7 mi
Wind DirectionSSW (196 °)

Weather ElementTotal
Precipitation---
Heating Degree Days22.2 (Base 65)
Averaged from 65 records on March 19, 2013
WEATHER CONDITIONS BREAKOUT
WIND DIRECTION BREAKOUT
WEATHER BY HOUR - MARCH 19, 2013
[ °C ]   °F
Local TimeTemperatureDewpointHumidityBarometerVisibilityWind DirectionWind SpeedGust SpeedPrecipitationEventsConditions
12:20 AM37.4 °F33.8 °F87 %29.50 in5.6 miSSW (210°)15.0 mphRainRain
12:50 AM39.2 °F33.8 °F81 %29.50 in6.2 miSW (220°)15.0 mphRainLight Rain Showers
1:20 AM41.0 °F32.0 °F70 %29.50 in6.2 miSW (220°)20.7 mphMostly Cloudy
1:50 AM39.2 °F32.0 °F75 %29.53 in6.2 miSSW (200°)12.7 mphMostly Cloudy
2:00 AM39.0 °F33.0 °F70 %29.58 inSSW (200°)13.8 mph
2:50 AM39.2 °F32.0 °F75 %29.53 in6.2 miSSW (200°)11.5 mphMostly Cloudy
3:00 AM38.0 °F32.0 °F73 %29.60 inSSW (200°)16.1 mph
3:20 AM39.2 °F33.8 °F81 %29.56 in6.2 miSSW (200°)13.8 mphMostly Cloudy
3:50 AM37.4 °F33.8 °F87 %29.56 in6.2 miSSW (200°)15.0 mphMostly Cloudy
4:20 AM37.4 °F33.8 °F87 %29.56 in6.2 miSSW (200°)15.0 mphRainLight Rain Showers
4:50 AM37.4 °F33.8 °F87 %29.59 in6.2 miSouth (190°)11.5 mphRainLight Rain Showers
5:00 AM38.0 °F33.0 °F74 %29.65 inSSW (200°)10.4 mph
5:20 AM37.4 °F33.8 °F87 %29.59 in6.2 miSouth (190°)12.7 mphMostly Cloudy
5:50 AM37.4 °F32.0 °F81 %29.59 in6.2 miSouth (190°)12.7 mphMostly Cloudy
6:00 AM38.0 °F32.0 °F73 %29.66 inSSW (200°)10.4 mph
6:20 AM37.4 °F33.8 °F87 %29.62 in6.2 miSSW (200°)9.2 mphMostly Cloudy
6:50 AM37.4 °F33.8 °F87 %29.65 in5.6 miSSW (200°)16.1 mphRainLight Rain Showers
7:00 AM37.0 °F33.0 °F80 %29.70 in16.0 miSSW (210°)16.1 mphMostly Cloudy
7:20 AM35.6 °F33.8 °F93 %29.65 in6.2 miSSW (210°)13.8 mphMostly Cloudy
7:50 AM37.4 °F33.8 °F87 %29.65 in6.2 miSSW (210°)12.7 mphMostly Cloudy
8:00 AM38.0 °F33.0 °F76 %29.72 inSSW (200°)13.8 mph
8:20 AM37.4 °F33.8 °F87 %29.68 in6.2 miSSW (200°)15.0 mphMostly Cloudy
8:50 AM39.2 °F33.8 °F81 %29.68 in6.2 miSSW (210°)13.8 mphMostly Cloudy
9:00 AM39.0 °F34.0 °F74 %29.73 inSSW (210°)15.0 mph
9:20 AM39.2 °F33.8 °F81 %29.68 in6.2 miSSW (210°)13.8 mphMostly Cloudy
9:50 AM42.8 °F33.8 °F70 %29.68 in6.2 miSW (220°)12.7 mphMostly Cloudy
10:20 AM42.8 °F32.0 °F66 %29.68 in6.2 miSSW (210°)13.8 mphScattered Clouds
10:50 AM42.8 °F32.0 °F66 %29.68 in6.2 miSSW (210°)13.8 mphScattered Clouds
11:00 AM44.0 °F31.0 °F48 %29.72 inSSW (210°)13.8 mph
11:20 AM46.4 °F32.0 °F57 %29.68 in6.2 miSW (230°)12.7 mphScattered Clouds
11:50 AM46.4 °F33.8 °F62 %29.68 in6.2 miSSW (210°)11.5 mphScattered Clouds
12:00 PM46.0 °F29.0 °F40 %29.71 inSW (220°)12.7 mph
12:20 PM46.4 °F30.2 °F53 %29.68 in6.2 miSSW (210°)13.8 mphScattered Clouds
12:50 PM48.2 °F30.2 °F50 %29.68 in6.2 miSSW (200°)13.8 mphScattered Clouds
1:00 PM47.0 °F27.0 °F33 %29.69 in31.0 miSSW (210°)13.8 mphPartly Cloudy
1:20 PM48.2 °F28.4 °F46 %29.65 in6.2 miSW (220°)12.7 mphScattered Clouds
1:50 PM50.0 °F30.2 °F47 %29.65 in6.2 miSW (220°)12.7 mphScattered Clouds
2:00 PM50.0 °F26.0 °F27 %29.66 inSSW (210°)15.0 mph
2:20 PM50.0 °F28.4 °F43 %29.65 in6.2 miSW (220°)12.7 mphScattered Clouds
2:50 PM48.2 °F26.6 °F43 %29.62 in6.2 miSW (220°)15.0 mphScattered Clouds
3:00 PM49.0 °F26.0 °F27 %29.65 inSSW (210°)10.4 mph
3:20 PM50.0 °F28.4 °F43 %29.62 in6.2 miSSW (200°)11.5 mphPartly Cloudy
3:50 PM50.0 °F26.6 °F40 %29.62 in6.2 miSW (230°)13.8 mphMostly Cloudy
4:20 PM50.0 °F28.4 °F43 %29.59 in6.2 miSSW (210°)13.8 mphMostly Cloudy
4:50 PM50.0 °F26.6 °F40 %29.59 in6.2 miSW (220°)13.8 mphMostly Cloudy
5:00 PM49.0 °F25.0 °F26 %29.62 inSW (220°)11.5 mph
5:20 PM50.0 °F28.4 °F43 %29.59 in6.2 miSSW (210°)10.4 mphMostly Cloudy
5:50 PM50.0 °F28.4 °F43 %29.59 in6.2 miSW (220°)13.8 mphMostly Cloudy
6:00 PM49.0 °F27.0 °F30 %29.61 inSW (220°)11.5 mph
6:20 PM48.2 °F28.4 °F46 %29.59 in6.2 miSSW (200°)8.1 mphMostly Cloudy
6:50 PM48.2 °F28.4 °F46 %29.59 in6.2 miSSW (200°)8.1 mphMostly Cloudy
7:00 PM47.0 °F28.0 °F34 %29.62 in37.0 miSW (230°)5.8 mphScattered Clouds
7:20 PM46.4 °F28.4 °F50 %29.59 in6.2 miWSW (250°)4.6 mphMostly Cloudy
7:50 PM42.8 °F30.2 °F61 %29.59 in6.2 miVariable2.3 mphScattered Clouds
8:00 PM41.0 °F29.0 °F52 %29.64 inNorth (10°)1.2 mph
8:20 PM41.0 °F30.2 °F65 %29.62 in6.2 miVariable1.2 mphScattered Clouds
8:50 PM39.2 °F30.2 °F70 %29.62 in6.2 miVariable1.2 mphPartly Cloudy
9:00 PM41.0 °F30.0 °F54 %29.66 inWNW (290°)1.2 mph
9:20 PM39.2 °F32.0 °F75 %29.62 inSW (220°)4.6 mphClear
9:50 PM41.0 °F32.0 °F70 %29.62 inWest (270°)4.6 mphClear
10:20 PM41.0 °F30.2 °F65 %29.62 inSSW (200°)3.5 mphClear
10:50 PM42.8 °F32.0 °F66 %29.62 inSouth (180°)3.5 mphClear
11:00 PM43.0 °F30.0 °F48 %29.65 inSW (220°)2.3 mph
11:20 PM41.0 °F30.2 °F65 %29.62 inSW (230°)3.5 mphClear
11:50 PM41.0 °F30.2 °F65 %29.59 inVariable3.5 mphClear
Hourly data recorded from LSGG, located miles away from Annemasse, France







STORIES FROM OUR PARTNERS